This is the latest recevied weather packets stored in our database for station/object HB9ZRH-10. If no packets are shown the sender has not sent any weather packets the latest 10 day(s).
| Time | Temp. | Humidity | Pressure | Rain* | Wind** | Luminosity | Snow |
|---|---|---|---|---|---|---|---|
| 1777563202 | 25.56° C | 34% | 1021.3 hPa | - | - | - | - |
| 1777562902 | 25° C | 35% | 1021.3 hPa | - | - | - | - |
| 1777562602 | 24.44° C | 35% | 1021.3 hPa | - | - | - | - |
| 1777562302 | 24.44° C | 35% | 1021.3 hPa | - | - | - | - |
| 1777562002 | 24.44° C | 35% | 1021.2 hPa | - | - | - | - |
| 1777561702 | 23.89° C | 35% | 1021.1 hPa | - | - | - | - |
| 1777561402 | 23.89° C | 36% | 1021.2 hPa | - | - | - | - |
| 1777561102 | 23.89° C | 36% | 1021.1 hPa | - | - | - | - |
| 1777560802 | 25° C | 35% | 1021.1 hPa | - | - | - | - |
| 1777560502 | 24.44° C | 35% | 1021 hPa | - | - | - | - |
| 1777560202 | 26.11° C | 34% | 1021.2 hPa | - | - | - | - |
| 1777559902 | 25° C | 35% | 1021.2 hPa | - | - | - | - |
| 1777559602 | 24.44° C | 35% | 1021.1 hPa | - | - | - | - |
| 1777559302 | 24.44° C | 35% | 1021.2 hPa | - | - | - | - |
| 1777559002 | 24.44° C | 35% | 1021.2 hPa | - | - | - | - |
| 1777558702 | 25° C | 35% | 1021.2 hPa | - | - | - | - |
| 1777558402 | 24.44° C | 35% | 1021 hPa | - | - | - | - |
| 1777558102 | 25° C | 35% | 1021.1 hPa | - | - | - | - |
| 1777557802 | 25.56° C | 35% | 1021.1 hPa | - | - | - | - |
| 1777557502 | 26.11° C | 34% | 1021.2 hPa | - | - | - | - |
| 1777557202 | 25° C | 35% | 1021.1 hPa | - | - | - | - |
| 1777556902 | 23.89° C | 36% | 1021.2 hPa | - | - | - | - |
| 1777556602 | 24.44° C | 35% | 1021.2 hPa | - | - | - | - |
| 1777556302 | 24.44° C | 35% | 1021.2 hPa | - | - | - | - |
| 1777556002 | 23.33° C | 36% | 1021.3 hPa | - | - | - | - |
* Rain since midnight (hover to see other rain measurements)
** Current wind speed in m/s (hover to see current wind gust speed)